N0LSD-13 Weather Reports


time (UTC)temp
C
wind
direction
speed
KPH
gust
KPH
rain 1hr
cm
rain 24hr
cm
rain mn
cm
humidity
%
barometer
mb
20260504014007 12 215 8.0 16.1 0.00 0.00 0.00 53 989.2
20260504013005 12 199 9.7 24.1 0.00 0.00 0.00 54 989.2
20260504012006 12 186 11.3 25.7 0.00 0.00 0.00 53 989.5
20260504011005 12 188 12.9 27.4 0.00 0.00 0.00 53 989.3
20260504010005 12 202 9.7 32.2 0.00 0.00 0.00 53 989.5
20260504005006 12 213 11.3 32.2 0.00 0.00 0.00 52 989.1
20260504004004 12 176 8.0 22.5 0.00 0.00 0.00 53 989.2
20260504002004 11 162 8.0 22.5 0.00 0.00 0.00 55 989.1
20260504001004 11 207 11.3 20.9 0.00 0.00 0.00 57 988.9
20260504000006 11 224 6.4 24.1 0.00 0.00 0.00 58 988.9
20260503235005 11 205 9.7 22.5 0.00 0.00 0.00 57 989.0
20260503234005 12 213 6.4 19.3 0.00 0.00 0.00 56 989.3
20260503233006 12 191 8.0 24.1 0.00 0.00 0.00 54 989.3
20260503232005 12 183 9.7 22.5 0.00 0.00 0.00 55 989.3
20260503231006 12 175 9.7 22.5 0.00 0.00 0.00 57 989.4
20260503230006 12 224 9.7 24.1 0.00 0.00 0.00 57 989.4
20260503225005 12 206 8.0 25.7 0.00 0.00 0.00 58 989.6
20260503224006 11 208 11.3 24.1 0.00 0.00 0.00 59 989.6
20260503223004 11 213 8.0 24.1 0.00 0.00 0.00 60 989.6
20260503221005 11 207 14.5 37.0 0.00 0.00 0.00 59 989.6
20260503220004 11 207 12.9 32.2 0.00 0.00 0.00 61 989.6
20260503215004 11 193 9.7 29.0 0.00 0.00 0.00 62 989.6
20260503214006 11 185 11.3 32.2 0.00 0.00 0.00 62 989.4
20260503213004 11 184 11.3 25.7 0.00 0.00 0.00 61 989.3
20260503212005 11 191 12.9 29.0 0.00 0.00 0.00 61 989.1
20260503211005 11 188 11.3 38.6 0.00 0.00 0.00 61 989.3
20260503210005 11 177 12.9 37.0 0.00 0.00 0.00 60 989.4
20260503205005 10 180 11.3 27.4 0.00 0.00 0.00 62 989.5
20260503204005 10 206 11.3 22.5 0.00 0.00 0.00 61 989.4
20260503203004 11 197 11.3 27.4 0.00 0.00 0.00 60 989.5
20260503201004 10 121 12.9 22.5 0.00 0.00 0.00 49 992.2
20260503195005 10 121 12.9 22.5 0.00 0.00 0.00 49 992.2
20260503194004 10 121 12.9 22.5 0.00 0.00 0.00 49 992.2
20260503193004 10 121 12.9 22.5 0.00 0.00 0.00 49 992.2
20260503192004 10 121 12.9 22.5 0.00 0.00 0.00 49 992.2
20260503191004 10 121 12.9 22.5 0.00 0.00 0.00 49 992.2
20260503190004 10 121 12.9 22.5 0.00 0.00 0.00 49 992.2
20260503185004 10 121 12.9 22.5 0.00 0.00 0.00 49 992.2
20260503184005 10 121 12.9 22.5 0.00 0.00 0.00 49 992.2
20260503183006 10 121 12.9 22.5 0.00 0.00 0.00 49 992.2
20260503182006 10 121 12.9 22.5 0.00 0.00 0.00 49 992.2
20260503181004 10 121 12.9 22.5 0.00 0.00 0.00 49 992.2
20260503180004 10 121 12.9 22.5 0.00 0.00 0.00 49 992.2
20260503175005 10 121 12.9 22.5 0.00 0.00 0.00 49 992.2
20260503174003 10 121 12.9 22.5 0.00 0.00 0.00 49 992.2
20260503173004 10 122 9.7 24.1 0.00 0.00 0.00 51 992.4
20260503171007 11 209 9.7 24.1 0.00 0.00 0.00 52 992.1
20260503151004 10 144 4.8 19.3 0.00 0.00 0.00 58 993.3
20260503131004 7 210 9.7 19.3 0.00 0.00 0.00 77 993.5
20260503081007 0 267 0.0 1.6 0.00 0.00 0.00 84 994.2
20260503072004 1 267 1.6 4.8 0.00 0.00 0.00 84 993.9
20260503071004 1 268 0.0 3.2 0.00 0.00 0.00 86 993.9
20260503055005 1 270 0.0 0.0 0.00 0.00 0.00 83 994.4
20260503054004 1 270 0.0 0.0 0.00 0.00 0.00 82 994.4
20260503053006 1 270 0.0 0.0 0.00 0.00 0.00 81 994.4
20260503052004 1 270 0.0 0.0 0.00 0.00 0.00 79 994.5
20260503051004 2 270 0.0 0.0 0.00 0.00 0.00 78 994.7
20260503050006 2 270 0.0 1.6 0.00 0.00 0.00 78 994.7
20260503045004 2 270 0.0 0.0 0.00 0.00 0.00 78 994.7
20260503044004 2 270 0.0 1.6 0.00 0.00 0.00 77 994.8
20260503043003 3 270 0.0 0.0 0.00 0.00 0.00 77 994.6
20260503042004 3 270 0.0 1.6 0.00 0.00 0.00 76 994.8
20260503041004 3 270 0.0 1.6 0.00 0.00 0.00 76 994.7
20260503040005 3 268 1.6 3.2 0.00 0.00 0.00 75 995.1
20260503035004 4 270 0.0 3.2 0.00 0.00 0.00 74 995.0
20260503034006 4 270 1.6 4.8 0.00 0.00 0.00 74 994.9
20260503033003 4 272 1.6 1.6 0.00 0.00 0.00 75 994.8
20260503032007 4 273 0.0 1.6 0.00 0.00 0.00 75 994.9
20260503031004 5 273 0.0 1.6 0.00 0.00 0.00 75 994.9
20260503025004 5 273 0.0 1.6 0.00 0.00 0.00 75 995.0
20260503024004 5 273 1.6 1.6 0.00 0.00 0.00 76 995.0
20260503023005 5 272 0.0 3.2 0.00 0.00 0.00 75 995.3
20260503022004 5 277 1.6 3.2 0.00 0.00 0.00 74 995.1
20260503021004 5 275 1.6 3.2 0.00 0.00 0.00 73 995.1
20260503020005 5 256 1.6 3.2 0.00 0.00 0.00 72 995.5
20260503015004 5 277 1.6 4.8 0.00 0.00 0.00 71 995.3